QPF
0.00 0.01 0.02 0.05 0.14 0.25 0.27 0.35 0.45 0.48 0.47 0.50 0.43 0.33 0.27 0.22 0.16 0.13 0.11 0.11 0.12 0.14 0.20 0.20 0.21 0.22 0.22 0.21 0.21 0.19 0.18 0.16 0.18 0.16 0.10 0.06 0.04 0.03 0.03 0.05 0.07 0.09 0.09
0.00 0.01 0.02 0.07 0.13 0.12 0.13 0.23 0.30 0.37 0.41 0.44 0.40 0.35 0.28 0.19 0.15 0.15 0.16 0.15 0.19 0.24 0.29 0.31 0.31 0.32 0.30 0.24 0.21 0.22 0.20 0.13 0.16 0.20 0.19 0.11 0.06 0.04 0.05 0.10 0.11 0.12 0.14
0.01 0.03 0.08 0.09 0.06 0.05 0.07 0.12 0.15 0.19 0.24 0.28 0.28 0.28 0.24 0.18 0.17 0.20 0.18 0.18 0.22 0.27 0.35 0.40 0.40 0.39 0.35 0.25 0.22 0.23 0.22 0.17 0.17 0.22 0.24 0.17 0.10 0.08 0.10 0.15 0.16 0.15 0.17
0.06 0.08 0.06 0.02 0.02 0.02 0.03 0.05 0.07 0.09 0.13 0.17 0.19 0.20 0.20 0.15 0.15 0.19 0.16 0.17 0.20 0.24 0.27 0.32 0.35 0.34 0.31 0.26 0.24 0.25 0.26 0.27 0.21 0.21 0.22 0.20 0.16 0.14 0.12 0.11 0.13 0.16 0.20
0.09 0.05 0.01 0.01 0.00 0.01 0.01 0.02 0.02 0.04 0.07 0.11 0.11 0.10 0.12 0.13 0.15 0.16 0.13 0.14 0.18 0.23 0.25 0.28 0.31 0.30 0.27 0.24 0.25 0.28 0.29 0.26 0.22 0.22 0.23 0.25 0.26 0.26 0.21 0.14 0.11 0.14 0.21
0.02 0.01 0.01 0.00 0.00 0.00 0.00 0.00 0.00 0.01 0.03 0.05 0.07 0.08 0.07 0.08 0.10 0.10 0.11 0.13 0.15 0.17 0.18 0.19 0.21 0.22 0.21 0.21 0.24 0.26 0.26 0.26 0.24 0.21 0.22 0.24 0.24 0.25 0.26 0.22 0.13 0.11 0.11
0.00 0.00 0.00 0.00 0.00 0.00 0.00 0.00 0.00 0.00 0.01 0.02 0.03 0.04 0.06 0.06 0.07 0.08 0.12 0.14 0.15 0.14 0.14 0.15 0.17 0.19 0.22 0.24 0.25 0.25 0.24 0.23 0.20 0.18 0.19 0.20 0.24 0.24 0.26 0.26 0.21 0.17 0.12
0.00 0.00 0.00 0.00 0.00 0.00 0.00 0.00 0.00 0.00 0.01 0.01 0.02 0.02 0.04 0.04 0.05 0.06 0.08 0.10 0.10 0.10 0.12 0.13 0.14 0.15 0.18 0.22 0.27 0.28 0.23 0.20 0.17 0.16 0.18 0.21 0.23 0.24 0.23 0.22 0.21 0.17 0.13
0.00 0.00 0.00 0.00 0.00 0.00 0.00 0.00 0.00 0.00 0.00 0.01 0.01 0.02 0.03 0.04 0.04 0.05 0.06 0.07 0.07 0.08 0.11 0.13 0.13 0.16 0.17 0.19 0.24 0.25 0.22 0.20 0.19 0.20 0.23 0.25 0.25 0.25 0.24 0.20 0.16 0.13 0.10
0.00 0.00 0.00 0.00 0.00 0.00 0.01 0.00 0.00 0.00 0.01 0.01 0.01 0.01 0.02 0.03 0.04 0.06 0.06 0.07 0.09 0.10 0.13 0.15 0.17 0.21 0.23 0.22 0.23 0.22 0.22 0.21 0.20 0.20 0.21 0.21 0.20 0.19 0.18 0.14 0.10 0.08 0.06
0.00 0.00 0.00 0.00 0.00 0.01 0.01 0.00 0.00 0.00 0.01 0.01 0.02 0.02 0.02 0.03 0.04 0.05 0.06 0.07 0.09 0.10 0.12 0.15 0.18 0.19 0.22 0.23 0.23 0.24 0.23 0.22 0.20 0.18 0.15 0.13 0.13 0.12 0.10 0.08 0.07 0.05 0.04
0.00 0.00 0.00 0.00 0.01 0.00 0.00 0.00 0.00 0.00 0.01 0.01 0.02 0.02 0.03 0.03 0.04 0.04 0.04 0.06 0.08 0.12 0.16 0.20 0.27 0.26 0.25 0.23 0.22 0.22 0.22 0.19 0.17 0.17 0.15 0.13 0.11 0.09 0.08 0.07 0.05 0.03 0.02
0.00 0.00 0.00 0.00 0.00 0.00 0.00 0.00 0.01 0.01 0.01 0.02 0.02 0.03 0.03 0.04 0.05 0.05 0.05 0.06 0.07 0.11 0.15 0.23 0.31 0.30 0.27 0.25 0.25 0.22 0.19 0.17 0.17 0.19 0.19 0.17 0.15 0.13 0.09 0.06 0.04 0.03 0.02
0.00 0.00 0.00 0.00 0.00 0.00 0.01 0.01 0.02 0.02 0.02 0.03 0.03 0.05 0.06 0.07 0.07 0.08 0.09 0.09 0.10 0.15 0.16 0.17 0.24 0.27 0.27 0.27 0.27 0.27 0.25 0.23 0.18 0.14 0.12 0.10 0.09 0.10 0.08 0.05 0.04 0.02 0.01
0.00 0.00 0.00 0.00 0.00 0.00 0.01 0.02 0.02 0.02 0.02 0.03 0.05 0.06 0.10 0.16 0.14 0.13 0.16 0.14 0.11 0.13 0.15 0.12 0.15 0.21 0.21 0.22 0.21 0.18 0.18 0.19 0.21 0.16 0.12 0.07 0.04 0.03 0.03 0.03 0.02 0.01 0.01
0.00 0.00 0.00 0.00 0.00 0.00 0.01 0.01 0.01 0.02 0.03 0.06 0.12 0.09 0.06 0.11 0.13 0.11 0.11 0.08 0.06 0.06 0.07 0.08 0.11 0.16 0.17 0.17 0.14 0.10 0.09 0.08 0.10 0.09 0.07 0.05 0.03 0.01 0.01 0.01 0.01 0.01 0.01
0.00 0.00 0.00 0.00 0.00 0.00 0.00 0.01 0.02 0.04 0.05 0.08 0.16 0.17 0.09 0.07 0.06 0.05 0.05 0.04 0.03 0.03 0.03 0.05 0.07 0.09 0.09 0.10 0.10 0.08 0.06 0.05 0.03 0.03 0.03 0.02 0.01 0.01 0.01 0.00 0.00 0.00 0.00
0.00 0.00 0.00 0.00 0.00 0.00 0.01 0.02 0.03 0.04 0.05 0.06 0.08 0.14 0.14 0.09 0.05 0.02 0.02 0.02 0.03 0.04 0.05 0.05 0.06 0.07 0.05 0.05 0.05 0.05 0.05 0.04 0.03 0.01 0.01 0.01 0.00 0.00 0.00 0.00 0.00 0.00 0.00
0.00 0.00 0.00 0.00 0.00 0.01 0.01 0.02 0.04 0.05 0.05 0.05 0.06 0.08 0.08 0.07 0.05 0.02 0.01 0.01 0.01 0.02 0.02 0.02 0.02 0.04 0.03 0.02 0.02 0.04 0.04 0.03 0.02 0.01 0.00 0.00 0.00 0.00 0.00 0.00 0.00 0.00 0.00
0.00 0.00 0.00 0.00 0.01 0.01 0.03 0.04 0.05 0.06 0.05 0.05 0.05 0.07 0.07 0.07 0.07 0.05 0.03 0.02 0.01 0.01 0.01 0.01 0.00 0.01 0.01 0.01 0.01 0.02 0.02 0.01 0.01 0.00 0.00 0.00 0.00 0.00 0.00 0.00 0.00 0.00 0.00
0.00 0.01 0.01 0.01 0.02 0.04 0.06 0.08 0.09 0.09 0.08 0.07 0.06 0.06 0.05 0.05 0.06 0.05 0.03 0.02 0.01 0.01 0.01 0.00 0.00 0.00 0.00 0.01 0.01 0.01 0.00 0.00 0.01 0.00 0.00 0.00 0.00 0.00 0.00 0.00 0.00 0.00 0.00
0.01 0.01 0.01 0.02 0.03 0.06 0.11 0.14 0.15 0.15 0.14 0.12 0.10 0.08 0.07 0.06 0.06 0.05 0.03 0.02 0.01 0.01 0.01 0.00 0.00 0.00 0.00 0.00 0.00 0.00 0.00 0.00 0.00 0.00 0.00 0.00 0.00 0.00 0.00 0.00 0.00 0.00 0.00
0.01 0.01 0.02 0.02 0.04 0.08 0.16 0.22 0.22 0.20 0.17 0.14 0.12 0.11 0.10 0.09 0.08 0.06 0.04 0.02 0.01 0.01 0.00 0.00 0.00 0.00 0.00 0.00 0.00 0.00 0.00 0.00 0.00 0.00 0.00 0.00 0.00 0.00 0.00 0.00 0.00 0.00 0.00
0.01 0.01 0.02 0.03 0.05 0.10 0.20 0.28 0.29 0.27 0.24 0.20 0.16 0.13 0.12 0.12 0.11 0.09 0.05 0.02 0.01 0.01 0.00 0.00 0.00 0.00 0.00 0.00 0.00 0.00 0.00 0.00 0.00 0.00 0.00 0.00 0.00 0.00 0.00 0.00 0.00 0.00 0.00
0.00 0.01 0.01 0.02 0.05 0.09 0.15 0.26 0.34 0.35 0.33 0.29 0.24 0.19 0.14 0.12 0.11 0.09 0.06 0.03 0.01 0.01 0.00 0.00 0.00 0.00 0.00 0.00 0.00 0.00 0.00 0.00 0.00 0.00 0.00 0.00 0.00 0.00 0.00 0.00 0.00 0.00 0.00
0.00 0.01 0.01 0.02 0.03 0.06 0.10 0.16 0.26 0.36 0.41 0.38 0.33 0.26 0.20 0.16 0.13 0.10 0.07 0.04 0.03 0.01 0.01 0.00 0.00 0.00 0.00 0.00 0.00 0.00 0.00 0.00 0.00 0.00 0.00 0.00 0.00 0.00 0.00 0.00 0.00 0.00 0.00
MSLP
1009.40 1009.41 1009.44 1009.49 1009.57 1009.68 1009.83 1010.03 1010.27 1010.53 1010.78 1010.97 1011.08 1011.07 1010.93 1010.66 1010.28 1009.84 1009.40 1008.99 1008.67 1008.47 1008.40 1008.48 1008.67 1008.95 1009.28 1009.64 1009.99 1010.33 1010.65 1010.94 1011.21 1011.44 1011.64 1011.76 1011.82 1011.77 1011.61 1011.35 1011.01 1010.63 1010.25
1009.97 1009.97 1009.99 1010.00 1010.02 1010.05 1010.11 1010.22 1010.39 1010.59 1010.80 1010.98 1011.08 1011.06 1010.89 1010.58 1010.15 1009.63 1009.10 1008.60 1008.20 1007.93 1007.82 1007.87 1008.05 1008.33 1008.67 1009.03 1009.40 1009.77 1010.12 1010.45 1010.77 1011.06 1011.31 1011.50 1011.60 1011.58 1011.44 1011.18 1010.81 1010.40 1009.98
1010.31 1010.32 1010.33 1010.32 1010.30 1010.27 1010.26 1010.30 1010.40 1010.55 1010.72 1010.88 1010.98 1010.96 1010.80 1010.48 1010.02 1009.47 1008.88 1008.33 1007.86 1007.54 1007.37 1007.36 1007.50 1007.74 1008.04 1008.39 1008.75 1009.12 1009.49 1009.86 1010.22 1010.58 1010.90 1011.16 1011.32 1011.36 1011.26 1011.02 1010.68 1010.26 1009.82
1010.40 1010.40 1010.42 1010.41 1010.38 1010.32 1010.26 1010.24 1010.29 1010.40 1010.54 1010.69 1010.79 1010.79 1010.65 1010.35 1009.90 1009.35 1008.74 1008.15 1007.64 1007.24 1007.00 1006.91 1006.97 1007.13 1007.38 1007.67 1008.00 1008.36 1008.74 1009.14 1009.55 1009.98 1010.38 1010.72 1010.97 1011.09 1011.06 1010.89 1010.59 1010.20 1009.79
1010.24 1010.26 1010.29 1010.30 1010.28 1010.22 1010.15 1010.10 1010.11 1010.18 1010.30 1010.44 1010.55 1010.57 1010.46 1010.20 1009.79 1009.26 1008.65 1008.04 1007.47 1007.00 1006.67 1006.48 1006.42 1006.48 1006.64 1006.86 1007.14 1007.48 1007.86 1008.30 1008.77 1009.26 1009.75 1010.18 1010.54 1010.76 1010.82 1010.74 1010.52 1010.20 1009.84
1009.95 1009.96 1010.02 1010.07 1010.08 1010.04 1009.98 1009.92 1009.92 1009.97 1010.08 1010.21 1010.32 1010.37 1010.30 1010.08 1009.71 1009.20 1008.60 1007.95 1007.33 1006.78 1006.33 1006.01 1005.82 1005.76 1005.80 1005.95 1006.18 1006.49 1006.89 1007.36 1007.89 1008.46 1009.03 1009.56 1010.02 1010.34 1010.52 1010.55 1010.43 1010.20 1009.92
1009.59 1009.62 1009.70 1009.80 1009.85 1009.85 1009.81 1009.77 1009.76 1009.81 1009.90 1010.04 1010.16 1010.23 1010.19 1010.01 1009.67 1009.18 1008.56 1007.88 1007.19 1006.54 1005.96 1005.50 1005.16 1004.96 1004.90 1004.96 1005.14 1005.44 1005.85 1006.36 1006.96 1007.60 1008.26 1008.88 1009.43 1009.86 1010.15 1010.30 1010.30 1010.18 1010.00
1009.29 1009.32 1009.43 1009.56 1009.66 1009.70 1009.69 1009.67 1009.67 1009.72 1009.82 1009.95 1010.08 1010.17 1010.16 1010.00 1009.68 1009.19 1008.56 1007.83 1007.05 1006.28 1005.57 1004.96 1004.48 1004.15 1003.98 1003.96 1004.10 1004.40 1004.84 1005.40 1006.04 1006.75 1007.48 1008.18 1008.81 1009.34 1009.72 1009.98 1010.10 1010.10 1010.03
1009.11 1009.14 1009.27 1009.42 1009.54 1009.60 1009.62 1009.62 1009.63 1009.68 1009.78 1009.92 1010.07 1010.17 1010.17 1010.04 1009.72 1009.23 1008.58 1007.79 1006.93 1006.05 1005.20 1004.46 1003.84 1003.39 1003.12 1003.06 1003.17 1003.47 1003.94 1004.54 1005.24 1006.00 1006.78 1007.53 1008.22 1008.81 1009.28 1009.62 1009.85 1009.98 1010.03
1009.11 1009.13 1009.24 1009.38 1009.49 1009.56 1009.58 1009.58 1009.60 1009.66 1009.77 1009.92 1010.07 1010.19 1010.21 1010.09 1009.80 1009.30 1008.62 1007.80 1006.86 1005.89 1004.93 1004.07 1003.34 1002.80 1002.46 1002.35 1002.46 1002.77 1003.26 1003.90 1004.64 1005.44 1006.24 1007.02 1007.73 1008.35 1008.87 1009.28 1009.61 1009.84 1010.01
1009.32 1009.30 1009.36 1009.44 1009.50 1009.52 1009.52 1009.50 1009.52 1009.58 1009.69 1009.85 1010.02 1010.16 1010.22 1010.13 1009.86 1009.38 1008.70 1007.86 1006.89 1005.86 1004.84 1003.90 1003.10 1002.50 1002.12 1001.99 1002.09 1002.42 1002.94 1003.60 1004.35 1005.15 1005.95 1006.72 1007.42 1008.04 1008.58 1009.04 1009.42 1009.74 1010.01
1009.71 1009.62 1009.58 1009.56 1009.54 1009.48 1009.41 1009.36 1009.34 1009.39 1009.51 1009.68 1009.88 1010.06 1010.15 1010.10 1009.88 1009.45 1008.82 1008.00 1007.04 1006.02 1004.98 1004.02 1003.19 1002.57 1002.17 1002.03 1002.13 1002.47 1002.99 1003.65 1004.40 1005.18 1005.96 1006.69 1007.35 1007.94 1008.47 1008.93 1009.34 1009.72 1010.06
1010.26 1010.06 1009.89 1009.74 1009.58 1009.41 1009.25 1009.12 1009.07 1009.10 1009.21 1009.40 1009.62 1009.83 1009.98 1010.00 1009.85 1009.51 1008.96 1008.22 1007.34 1006.37 1005.38 1004.44 1003.64 1003.03 1002.64 1002.50 1002.60 1002.92 1003.44 1004.08 1004.80 1005.54 1006.26 1006.93 1007.53 1008.07 1008.55 1008.99 1009.40 1009.80 1010.20
1010.89 1010.56 1010.25 1009.93 1009.62 1009.31 1009.05 1008.84 1008.73 1008.72 1008.82 1009.00 1009.25 1009.50 1009.70 1009.81 1009.76 1009.53 1009.11 1008.50 1007.75 1006.90 1006.01 1005.16 1004.42 1003.84 1003.48 1003.34 1003.44 1003.74 1004.22 1004.82 1005.48 1006.16 1006.80 1007.40 1007.93 1008.40 1008.82 1009.22 1009.60 1010.00 1010.40
1011.53 1011.07 1010.60 1010.12 1009.65 1009.22 1008.84 1008.54 1008.37 1008.31 1008.38 1008.56 1008.80 1009.09 1009.35 1009.54 1009.60 1009.51 1009.24 1008.81 1008.22 1007.54 1006.80 1006.08 1005.43 1004.92 1004.59 1004.46 1004.54 1004.80 1005.22 1005.76 1006.35 1006.95 1007.52 1008.04 1008.49 1008.88 1009.24 1009.58 1009.91 1010.26 1010.64
1012.10 1011.51 1010.90 1010.28 1009.68 1009.13 1008.66 1008.28 1008.04 1007.93 1007.96 1008.10 1008.34 1008.64 1008.94 1009.20 1009.36 1009.42 1009.32 1009.08 1008.69 1008.20 1007.64 1007.07 1006.54 1006.11 1005.82 1005.70 1005.75 1005.96 1006.32 1006.77 1007.28 1007.80 1008.29 1008.73 1009.11 1009.44 1009.73 1010.00 1010.27 1010.57 1010.90
1012.50 1011.81 1011.10 1010.38 1009.70 1009.07 1008.52 1008.08 1007.78 1007.62 1007.59 1007.69 1007.89 1008.17 1008.48 1008.79 1009.05 1009.22 1009.29 1009.24 1009.06 1008.78 1008.41 1008.01 1007.61 1007.27 1007.03 1006.90 1006.92 1007.08 1007.36 1007.73 1008.16 1008.60 1009.02 1009.39 1009.72 1009.99 1010.22 1010.43 1010.65 1010.88 1011.14
1012.66 1011.92 1011.15 1010.39 1009.66 1009.00 1008.42 1007.95 1007.61 1007.38 1007.29 1007.32 1007.47 1007.69 1007.99 1008.31 1008.63 1008.90 1009.12 1009.24 1009.26 1009.17 1009.00 1008.76 1008.50 1008.26 1008.06 1007.95 1007.94 1008.04 1008.26 1008.55 1008.90 1009.26 1009.62 1009.95 1010.24 1010.47 1010.67 1010.84 1011.00 1011.18 1011.36
1012.56 1011.80 1011.03 1010.28 1009.57 1008.92 1008.34 1007.86 1007.48 1007.20 1007.04 1006.99 1007.05 1007.20 1007.44 1007.75 1008.09 1008.44 1008.76 1009.02 1009.21 1009.31 1009.32 1009.25 1009.12 1008.97 1008.84 1008.74 1008.72 1008.78 1008.94 1009.16 1009.45 1009.77 1010.09 1010.39 1010.65 1010.87 1011.05 1011.20 1011.32 1011.45 1011.58
1012.21 1011.47 1010.74 1010.04 1009.38 1008.77 1008.23 1007.75 1007.35 1007.03 1006.79 1006.65 1006.61 1006.68 1006.84 1007.10 1007.44 1007.82 1008.22 1008.60 1008.92 1009.18 1009.35 1009.43 1009.44 1009.39 1009.32 1009.27 1009.25 1009.29 1009.41 1009.60 1009.84 1010.12 1010.42 1010.71 1010.97 1011.20 1011.38 1011.52 1011.63 1011.73 1011.82
1011.68 1010.98 1010.32 1009.69 1009.11 1008.56 1008.06 1007.60 1007.18 1006.81 1006.50 1006.27 1006.13 1006.10 1006.18 1006.38 1006.68 1007.07 1007.52 1007.98 1008.42 1008.81 1009.12 1009.34 1009.48 1009.54 1009.55 1009.55 1009.56 1009.61 1009.72 1009.88 1010.11 1010.38 1010.67 1010.96 1011.23 1011.47 1011.67 1011.82 1011.94 1012.03 1012.10
1011.05 1010.42 1009.83 1009.28 1008.77 1008.28 1007.82 1007.38 1006.94 1006.53 1006.16 1005.84 1005.61 1005.48 1005.48 1005.61 1005.87 1006.25 1006.72 1007.23 1007.76 1008.25 1008.68 1009.03 1009.29 1009.46 1009.57 1009.64 1009.71 1009.79 1009.91 1010.08 1010.31 1010.57 1010.86 1011.16 1011.45 1011.72 1011.94 1012.12 1012.26 1012.36 1012.43
1010.44 1009.87 1009.35 1008.87 1008.41 1007.97 1007.53 1007.08 1006.63 1006.18 1005.76 1005.37 1005.06 1004.86 1004.78 1004.85 1005.07 1005.43 1005.90 1006.44 1007.02 1007.60 1008.12 1008.58 1008.95 1009.24 1009.45 1009.61 1009.74 1009.88 1010.04 1010.23 1010.47 1010.74 1011.05 1011.36 1011.66 1011.95 1012.20 1012.41 1012.58 1012.70 1012.79
1009.93 1009.40 1008.93 1008.48 1008.06 1007.63 1007.20 1006.75 1006.28 1005.80 1005.32 1004.89 1004.53 1004.26 1004.13 1004.15 1004.33 1004.66 1005.12 1005.68 1006.29 1006.91 1007.52 1008.06 1008.53 1008.92 1009.24 1009.50 1009.72 1009.92 1010.13 1010.36 1010.62 1010.91 1011.22 1011.54 1011.85 1012.15 1012.42 1012.66 1012.86 1013.02 1013.13
1009.54 1009.04 1008.58 1008.15 1007.73 1007.30 1006.86 1006.39 1005.90 1005.40 1004.90 1004.44 1004.05 1003.76 1003.59 1003.57 1003.72 1004.02 1004.45 1005.00 1005.61 1006.26 1006.91 1007.52 1008.06 1008.55 1008.96 1009.32 1009.63 1009.91 1010.18 1010.46 1010.74 1011.04 1011.36 1011.68 1011.99 1012.29 1012.58 1012.83 1013.05 1013.24 1013.39
1009.24 1008.76 1008.30 1007.86 1007.42 1006.97 1006.50 1006.02 1005.52 1005.00 1004.51 1004.04 1003.65 1003.35 1003.17 1003.13 1003.24 1003.51 1003.91 1004.42 1005.02 1005.66 1006.32 1006.97 1007.58 1008.14 1008.64 1009.09 1009.48 1009.84 1010.18 1010.49 1010.80 1011.12 1011.42 1011.73 1012.04 1012.33 1012.61 1012.87 1013.10 1013.32 1013.50
Thickness
5805 5809 5809 5807 5802 5796 5788 5782 5775 5774 5771 5767 5763 5761 5760 5762 5763 5766 5767 5767 5767 5766 5764 5762 5759 5756 5753 5750 5748 5745 5743 5742 5741 5736 5734 5737 5740 5741 5742 5742 5742 5743 5744
5796 5798 5798 5796 5791 5784 5778 5772 5768 5765 5762 5757 5755 5754 5754 5756 5757 5759 5760 5761 5760 5759 5758 5756 5753 5750 5746 5745 5743 5739 5736 5736 5735 5729 5724 5722 5726 5733 5737 5736 5736 5737 5738
5787 5788 5787 5785 5782 5776 5772 5768 5763 5758 5754 5751 5748 5747 5748 5748 5747 5748 5750 5752 5752 5752 5751 5748 5747 5745 5742 5739 5738 5734 5731 5728 5729 5728 5721 5714 5714 5719 5725 5728 5729 5729 5730
5781 5780 5780 5777 5773 5770 5767 5762 5757 5752 5748 5744 5740 5737 5734 5733 5736 5738 5741 5742 5743 5743 5743 5741 5740 5736 5735 5734 5733 5732 5730 5725 5722 5722 5722 5720 5717 5709 5710 5715 5719 5722 5722
5775 5774 5774 5772 5769 5765 5760 5755 5751 5746 5742 5738 5733 5729 5726 5726 5728 5730 5731 5732 5733 5734 5734 5733 5731 5729 5729 5729 5727 5726 5725 5723 5720 5717 5716 5713 5711 5709 5703 5702 5706 5710 5714
5770 5769 5769 5766 5761 5758 5753 5748 5742 5737 5734 5731 5727 5723 5719 5718 5718 5719 5720 5721 5723 5724 5725 5725 5724 5723 5722 5723 5722 5720 5720 5719 5717 5716 5713 5710 5707 5704 5700 5697 5697 5698 5703
5763 5761 5759 5755 5752 5748 5744 5740 5734 5729 5727 5724 5720 5717 5714 5711 5710 5710 5710 5711 5712 5713 5715 5716 5716 5716 5716 5716 5716 5715 5714 5714 5712 5711 5710 5708 5707 5705 5700 5695 5693 5692 5694
5756 5754 5752 5748 5744 5741 5737 5732 5727 5723 5719 5716 5712 5710 5707 5704 5703 5702 5702 5702 5703 5704 5706 5707 5708 5709 5709 5709 5709 5707 5708 5708 5707 5707 5705 5703 5703 5700 5697 5693 5688 5684 5683
5749 5747 5745 5742 5738 5734 5730 5725 5720 5716 5712 5708 5704 5702 5699 5696 5694 5694 5693 5693 5693 5695 5696 5697 5698 5700 5701 5701 5702 5701 5701 5701 5700 5699 5698 5696 5695 5693 5691 5689 5687 5681 5674
5743 5741 5738 5735 5731 5728 5724 5719 5714 5708 5704 5700 5696 5694 5690 5687 5685 5684 5683 5682 5683 5684 5685 5687 5688 5690 5691 5692 5692 5691 5691 5691 5690 5690 5688 5686 5685 5683 5682 5681 5680 5679 5673
5734 5732 5730 5728 5726 5722 5717 5711 5706 5701 5696 5692 5688 5684 5681 5678 5675 5673 5672 5672 5672 5673 5675 5676 5678 5679 5680 5680 5680 5680 5679 5679 5678 5678 5676 5674 5673 5671 5671 5672 5671 5669 5667
5725 5724 5722 5720 5717 5713 5709 5704 5700 5695 5690 5685 5680 5676 5672 5668 5665 5663 5661 5661 5661 5663 5664 5666 5667 5668 5668 5668 5667 5667 5666 5666 5665 5664 5663 5662 5662 5660 5660 5660 5659 5659 5658
5713 5712 5710 5708 5706 5704 5701 5697 5693 5688 5683 5679 5673 5668 5664 5659 5656 5653 5651 5650 5650 5651 5652 5653 5654 5654 5654 5654 5654 5653 5653 5652 5651 5650 5649 5649 5650 5648 5647 5648 5648 5648 5648
5697 5696 5694 5693 5693 5692 5691 5688 5684 5680 5676 5671 5666 5661 5656 5652 5648 5645 5642 5640 5639 5639 5640 5641 5641 5641 5641 5641 5641 5640 5639 5637 5636 5636 5636 5636 5636 5636 5636 5637 5637 5637 5636
5682 5680 5679 5679 5679 5679 5679 5678 5677 5674 5670 5664 5658 5654 5650 5645 5641 5637 5634 5632 5630 5629 5628 5629 5629 5630 5629 5628 5628 5628 5627 5625 5623 5622 5623 5624 5624 5626 5627 5627 5626 5627 5625
5667 5666 5666 5667 5666 5667 5667 5668 5668 5666 5663 5658 5653 5649 5643 5638 5633 5629 5626 5623 5621 5619 5618 5618 5618 5618 5617 5616 5617 5616 5615 5613 5612 5611 5611 5612 5613 5615 5616 5618 5619 5619 5618
5651 5650 5650 5651 5652 5653 5655 5656 5658 5658 5654 5651 5647 5643 5638 5633 5628 5624 5619 5616 5613 5611 5609 5608 5607 5606 5606 5606 5606 5605 5603 5602 5601 5601 5602 5604 5604 5606 5607 5609 5611 5611 5612
5636 5635 5635 5637 5639 5641 5642 5645 5648 5648 5647 5643 5641 5637 5632 5627 5623 5618 5613 5610 5607 5605 5602 5601 5599 5598 5597 5598 5597 5596 5595 5593 5593 5593 5593 5594 5595 5599 5601 5602 5602 5603 5604
5622 5621 5621 5622 5624 5626 5628 5631 5634 5636 5636 5635 5634 5631 5627 5623 5618 5613 5609 5606 5602 5599 5597 5594 5592 5591 5590 5591 5591 5590 5589 5587 5586 5586 5587 5589 5590 5593 5596 5596 5595 5596 5597
5611 5610 5608 5608 5608 5610 5613 5615 5618 5622 5624 5626 5627 5626 5622 5618 5614 5611 5606 5602 5598 5595 5593 5590 5587 5586 5585 5586 5587 5586 5585 5581 5580 5580 5582 5585 5586 5588 5590 5590 5590 5589 5589
5596 5594 5592 5590 5590 5592 5595 5598 5601 5605 5611 5616 5620 5620 5618 5615 5612 5607 5603 5600 5596 5591 5589 5586 5584 5583 5582 5582 5583 5584 5583 5580 5578 5578 5578 5580 5583 5585 5586 5586 5585 5584 5585
5580 5578 5575 5574 5574 5574 5575 5579 5583 5590 5597 5602 5608 5611 5612 5611 5609 5603 5600 5597 5593 5588 5585 5582 5579 5579 5579 5580 5580 5582 5582 5581 5579 5577 5577 5579 5581 5582 5583 5582 5583 5583 5582
5562 5560 5557 5556 5556 5556 5557 5560 5567 5574 5581 5588 5594 5599 5603 5605 5605 5601 5597 5594 5590 5587 5583 5581 5578 5576 5575 5576 5578 5579 5580 5580 5578 5577 5578 5579 5579 5579 5579 5579 5579 5577 5575
5545 5542 5539 5538 5539 5540 5542 5545 5551 5557 5564 5573 5581 5587 5593 5596 5598 5597 5595 5593 5590 5587 5584 5581 5578 5575 5573 5573 5574 5575 5576 5577 5576 5575 5576 5577 5576 5575 5575 5574 5573 5571 5569
5530 5526 5523 5522 5524 5526 5528 5532 5537 5541 5549 5557 5567 5574 5581 5587 5591 5593 5593 5593 5592 5591 5588 5584 5582 5577 5574 5575 5576 5575 5574 5574 5574 5573 5571 5570 5570 5569 5569 5568 5567 5566 5564
5516 5513 5511 5511 5513 5515 5517 5520 5524 5529 5535 5544 5553 5563 5570 5577 5584 5587 5587 5588 5590 5588 5587 5586 5584 5582 5581 5578 5575 5575 5575 5574 5573 5571 5568 5567 5567 5566 5565 5564 5562 5561 5559